Location: Newark
(37.8444°N, 127.0614°E)
Time: 11:00:04
(UTC+00:00)

XW-2F - Pass Details

Date: 24 January 2020
Orbit: 501 x 524 km, 97.5° (Epoch: 23 February)

Event Time Altitude Azimuth Distance (km) Brightness Sun altitude
Rises 22:09:28 0° 1° (N) 2,608 ? -6.8°
Reaches altitude 10° 22:11:42 10° 351° (N) 1,717 ? -6.4°
Maximum altitude 22:15:00 31° 288° (WNW) 893 ? -5.8°
Drops below altitude 10° 22:18:16 10° 224° (SW) 1,704 ? -5.1°
Sets 22:20:29 0° 214° (SW) 2,583 ? -4.7°
